Wind_Speed
10 12 14 15 14 12 10 9 8 7 7 8 8 8 8 9 10 11 10 7 6 7 8 8 9 10 12 14 15 16 18 18 18 19 19 18 18 17 16 16 15 14 12 11 11 12 12 13 13 13 14 15 16 17 18 20 21 22 23 23 23 22 21 21 19 18 18 19 20 20 20 21 19 17
11 12 14 16 15 14 13 12 11 11 10 10 10 10 10 10 9 9 9 7 5 5 6 8 9 10 11 13 15 16 17 17 17 17 16 16 16 15 14 13 12 11 11 10 12 13 13 14 14 14 15 16 17 18 19 20 20 21 21 20 20 19 18 18 18 17 17 18 19 20 20 20 20 18
13 13 13 15 15 15 15 14 14 14 14 14 13 12 12 11 8 6 8 8 5 4 5 6 8 10 11 12 13 13 13 14 14 14 15 15 14 13 11 10 10 10 10 11 12 13 14 15 16 15 15 16 18 19 19 18 18 18 17 17 17 17 17 18 19 19 19 19 19 20 21 21 21 20
13 14 14 14 14 14 15 16 16 16 16 16 16 15 15 13 10 7 8 10 7 4 6 6 6 9 11 10 11 11 11 11 13 13 14 13 12 11 10 10 10 11 11 12 13 15 17 17 16 15 16 17 18 17 15 15 15 16 16 16 17 18 19 21 22 23 22 22 22 22 21 21 20 20
14 15 15 15 15 14 15 16 16 16 17 17 17 17 16 14 11 10 10 12 10 6 5 7 6 7 9 9 9 11 11 11 13 13 13 12 11 10 10 11 12 13 14 14 16 18 18 17 16 16 16 15 14 13 12 13 15 16 16 18 19 22 24 25 25 25 24 23 22 22 21 21 20 19
16 16 16 16 15 15 16 16 15 15 16 16 17 17 17 15 13 12 13 14 14 9 6 6 6 6 8 8 9 11 13 13 15 16 15 12 10 10 12 13 15 15 16 17 17 18 17 16 16 14 12 11 11 11 13 14 16 17 19 21 24 27 29 29 29 27 25 23 22 21 20 19 18 18
18 18 18 17 16 16 17 17 16 16 16 16 16 16 16 16 15 14 15 15 15 14 10 6 5 6 8 9 10 11 13 15 17 18 17 14 11 11 14 15 16 16 16 16 16 15 15 15 12 9 9 10 12 13 14 16 17 20 23 26 28 30 31 32 32 31 30 28 26 25 22 20 18 17
20 20 20 18 16 17 19 19 18 17 17 17 17 17 16 17 16 15 16 16 16 17 15 10 8 9 10 10 11 13 14 16 17 18 18 16 13 13 14 15 16 15 14 14 14 14 14 11 9 8 10 12 13 15 16 18 21 24 26 28 29 31 32 34 35 34 33 31 29 27 24 21 19 17
20 20 21 20 18 18 19 20 19 18 18 18 18 17 17 16 16 16 17 17 17 19 19 15 12 11 12 12 11 14 16 18 18 18 17 15 15 14 13 12 13 12 12 13 13 13 11 9 9 11 12 13 14 17 19 21 24 26 27 28 29 31 33 34 35 34 33 31 30 27 24 20 18 16
21 20 20 20 20 19 19 19 19 18 18 17 17 18 17 16 16 16 17 17 18 19 19 18 16 14 14 13 12 14 17 20 20 20 17 14 13 12 11 9 10 11 12 13 13 12 9 9 12 13 14 15 17 19 21 23 25 26 27 28 30 32 33 34 35 34 33 31 29 27 24 20 17 15
24 22 21 21 21 20 19 18 18 18 18 18 17 17 17 16 17 17 17 16 17 19 19 19 18 17 16 15 15 16 18 19 19 20 19 14 11 12 11 10 10 10 11 12 12 11 10 11 13 14 15 17 19 21 23 24 25 26 27 28 30 32 33 34 34 34 32 31 29 27 25 22 18 15
26 25 24 22 21 21 20 19 18 19 19 19 19 18 18 18 19 19 18 17 18 19 19 19 19 19 18 16 16 17 18 18 17 18 18 16 13 12 12 12 11 11 11 12 11 10 10 12 14 16 17 19 21 23 24 24 24 25 26 28 30 32 33 34 34 34 32 31 29 27 25 22 18 15
26 26 25 24 23 22 21 20 19 19 19 20 20 19 19 19 20 20 19 18 18 18 19 20 19 19 19 17 17 18 18 18 18 17 17 16 14 13 12 10 10 12 12 11 11 12 13 14 15 17 19 21 23 24 23 23 23 24 26 28 30 31 32 33 34 34 32 30 29 27 25 21 18 15
26 26 26 25 24 24 23 22 22 21 21 21 21 20 20 20 21 21 20 19 18 17 18 18 18 19 19 17 17 19 18 18 17 16 16 15 14 14 12 8 7 11 12 11 12 13 14 15 17 18 21 23 24 23 23 23 23 24 26 28 30 31 32 33 34 34 32 31 29 27 25 22 19 16
27 26 27 26 26 25 25 24 23 22 22 22 22 21 21 21 20 20 18 17 16 16 17 18 18 20 20 18 17 18 18 18 17 15 15 14 14 14 13 11 9 10 12 11 12 14 15 16 18 20 22 25 24 23 23 23 23 24 26 27 29 30 31 33 34 33 32 31 30 27 25 23 20 17
28 27 27 27 27 26 26 25 24 23 22 22 22 22 21 21 20 18 17 16 16 17 19 20 20 21 21 19 17 17 19 19 17 15 14 14 14 15 15 14 13 12 12 12 12 14 16 17 19 21 23 25 24 22 22 22 23 24 25 27 28 30 31 32 33 33 32 31 30 27 25 23 20 17
29 29 28 28 27 26 26 26 25 24 23 22 23 23 22 21 20 20 19 18 19 20 21 23 23 21 20 20 18 17 19 19 18 15 14 14 15 15 15 15 14 13 13 13 13 15 16 17 19 21 24 24 23 22 21 21 22 24 25 26 28 29 31 31 32 33 33 32 30 28 26 24 21 17
29 29 29 29 27 26 25 25 25 25 24 23 23 23 23 22 21 21 21 21 21 22 23 24 24 21 20 21 19 18 20 20 19 18 16 16 16 16 15 14 14 14 14 14 15 16 17 17 18 21 23 23 22 20 20 20 21 23 24 25 27 28 30 30 31 32 33 32 31 29 27 25 22 18
30 29 29 29 28 27 26 25 25 25 25 24 24 23 23 22 22 22 22 22 22 22 23 24 24 23 22 22 22 21 21 21 20 19 19 19 18 17 15 14 13 14 15 15 15 17 18 18 18 20 22 22 20 19 18 19 21 22 23 24 25 27 28 29 30 32 33 32 31 29 27 25 23 19
30 29 29 30 29 28 27 26 25 25 25 25 25 25 24 23 23 23 23 22 22 23 23 23 24 25 25 25 24 22 22 23 22 21 21 21 20 19 18 15 14 15 15 15 16 18 18 17 18 21 21 20 19 17 16 18 20 21 22 23 24 25 26 27 29 31 31 32 31 30 27 25 23 20
31 30 30 30 30 29 28 26 25 25 25 26 26 26 25 25 25 25 23 22 23 23 24 25 26 27 27 26 25 23 22 23 23 23 24 22 21 21 21 18 16 16 16 16 17 18 17 17 19 21 21 19 17 15 15 17 19 20 22 23 24 24 24 26 28 29 30 31 30 30 28 25 23 20
32 32 31 31 31 30 29 27 26 25 26 27 27 27 26 27 27 25 23 22 22 23 24 25 26 27 27 26 25 24 23 23 23 24 24 21 21 23 22 20 19 19 18 17 17 17 17 17 19 21 20 19 16 14 14 16 18 20 21 23 23 23 23 25 27 28 29 30 30 30 29 26 23 21
33 32 32 31 31 30 29 27 27 27 28 28 27 27 27 28 28 26 23 23 23 23 23 23 23 24 24 24 24 24 24 23 23 24 23 21 20 22 21 20 20 20 18 17 16 16 17 18 20 20 19 18 16 14 14 16 18 20 21 22 22 22 22 23 25 26 27 28 29 29 29 27 24 21
33 33 32 31 30 30 28 27 27 27 28 29 28 28 29 30 28 26 25 26 25 24 24 23 22 23 22 23 24 25 24 24 24 23 21 19 19 20 20 19 19 19 18 17 16 16 17 19 20 19 18 16 14 14 15 16 19 20 21 20 19 20 21 22 23 24 25 26 27 28 30 29 26 22
34 33 33 31 30 29 28 27 27 28 29 29 29 29 29 29 28 27 28 28 27 27 27 26 25 25 25 25 26 26 26 26 24 22 20 19 19 20 20 19 18 17 16 16 16 16 18 20 20 18 17 15 13 14 15 16 18 19 20 19 18 19 19 20 22 23 24 24 26 28 30 30 27 24
34 34 33 32 30 28 27 26 26 27 28 28 29 29 28 27 26 27 29 29 29 30 31 30 30 29 28 28 28 28 28 26 24 22 21 20 21 21 20 19 17 16 16 16 17 17 18 19 19 17 15 14 13 14 15 15 15 16 17 16 16 17 18 19 20 22 23 24 25 27 29 29 28 25
34 34 33 32 30 29 28 26 25 24 25 26 26 26 25 25 26 27 29 30 32 33 33 33 33 33 31 31 31 30 28 25 23 22 22 22 23 23 21 18 17 16 16 17 18 18 18 17 17 15 14 13 13 14 15 13 12 12 13 14 14 14 16 17 19 21 23 24 25 26 27 26 26 25
35 35 34 32 31 30 29 28 26 25 24 25 25 24 24 25 26 28 29 31 33 35 36 37 37 36 34 34 33 30 26 23 22 23 24 24 24 23 20 18 17 18 18 17 17 17 16 15 15 13 12 12 13 13 13 11 10 11 11 12 12 12 14 16 18 20 22 24 25 26 27 27 27 26
35 35 34 33 32 31 31 30 29 28 27 26 25 25 25 26 27 28 30 32 34 36 38 38 39 38 36 33 30 26 23 22 23 24 25 25 25 22 19 18 19 19 18 16 16 16 15 14 13 12 11 11 12 12 11 10 10 10 11 11 10 12 14 17 18 19 21 23 24 26 28 30 30 29
36 36 35 35 34 34 33 33 32 31 30 29 27 26 26 27 28 28 30 32 34 36 37 37 37 35 31 28 25 22 22 23 25 25 25 25 23 20 19 21 22 20 17 15 15 16 15 14 12 11 9 9 10 9 9 8 8 9 10 10 10 12 15 18 19 20 21 22 24 26 27 29 30 30
36 36 37 37 36 36 35 35 35 35 33 31 30 29 28 28 28 29 30 31 33 34 35 34 32 29 25 23 22 22 23 24 25 25 24 23 21 21 22 23 22 19 16 15 15 16 15 14 12 10 8 7 7 7 6 6 6 7 8 9 10 12 14 17 19 21 22 23 24 25 26 28 29 30
36 36 37 38 38 38 38 38 37 37 36 34 32 30 28 28 29 29 30 31 32 33 33 32 29 25 23 23 23 23 24 25 25 25 24 23 22 24 25 24 22 20 17 15 15 16 15 14 12 9 7 6 5 4 4 3 3 4 7 9 10 11 13 15 17 20 21 22 23 23 25 27 28 30
37 37 38 39 39 39 39 38 38 37 36 34 33 30 29 28 29 29 30 31 32 32 32 30 27 25 24 25 24 24 25 25 26 26 25 25 26 27 27 24 23 21 18 15 16 17 16 14 12 9 7 5 3 2 1 1 1 3 6 8 9 11 12 14 16 18 19 20 21 22 23 25 27 29
38 39 39 39 39 38 37 36 35 35 34 33 31 30 29 29 30 31 31 31 31 32 31 30 28 27 28 28 27 27 26 26 26 27 27 28 29 29 27 25 24 21 17 16 17 18 16 14 12 10 7 5 3 2 2 2 1 2 4 6 8 10 11 14 16 17 19 20 21 21 22 23 26 28
37 39 39 39 38 37 36 34 33 32 32 31 31 30 30 31 32 33 32 31 30 30 31 30 30 31 32 31 30 29 28 27 27 28 30 31 31 28 26 25 24 23 20 18 18 18 16 15 13 11 9 6 4 3 4 3 2 1 3 5 7 9 11 13 15 17 18 20 20 20 21 23 25 27
37 37 38 38 37 37 36 34 33 32 32 31 31 32 32 32 32 32 31 28 28 29 30 31 32 33 34 34 33 32 30 29 29 30 33 34 32 28 25 25 25 24 21 19 18 18 16 16 15 12 10 8 6 5 4 4 2 2 3 4 6 8 10 12 14 16 17 19 20 20 21 22 25 27
37 37 37 37 37 37 37 35 34 34 33 33 33 33 33 32 31 31 29 28 29 31 31 32 34 35 35 36 37 35 33 32 31 32 34 35 32 27 25 25 25 24 21 18 18 19 17 17 16 14 11 10 7 6 5 4 3 3 3 4 6 7 9 10 12 14 16 18 19 20 20 21 23 26
38 38 37 37 37 38 38 36 35 36 35 35 34 35 35 34 32 31 31 30 30 31 32 33 36 37 36 37 39 38 35 32 31 33 34 33 30 26 25 25 24 22 20 19 20 19 18 18 17 14 13 11 9 6 5 5 4 5 5 6 6 7 8 10 11 13 14 16 18 19 20 20 21 23
40 39 39 38 37 38 37 36 37 37 37 36 35 35 36 35 33 33 33 32 31 31 32 33 35 36 35 35 37 37 33 30 31 34 33 31 28 26 25 24 22 20 20 20 20 19 18 19 19 16 14 12 8 7 7 7 7 7 7 7 8 9 9 10 10 11 13 14 16 17 18 19 20 21
40 40 40 39 38 38 37 38 38 39 39 38 37 37 37 36 34 31 31 31 32 31 31 32 32 32 33 33 34 35 32 30 32 33 31 29 28 26 23 21 21 21 21 20 19 18 19 19 18 16 13 10 8 9 10 11 10 9 8 9 10 11 11 11 11 12 13 14 15 16 17 18 19 19
39 39 39 39 39 38 38 39 40 41 41 40 39 38 37 36 34 31 30 30 31 30 29 29 28 28 29 30 31 32 31 30 31 30 29 28 27 24 20 19 21 22 22 20 19 18 17 15 14 13 13 12 12 13 15 15 13 10 9 10 12 12 13 13 13 13 14 14 15 16 16 17 17 18
37 36 37 38 38 39 40 40 40 41 41 39 39 38 36 34 33 32 32 32 32 29 27 26 26 25 26 27 28 28 28 29 29 28 28 27 25 22 21 21 22 22 22 20 17 15 13 13 14 15 15 15 15 17 18 17 15 13 11 12 13 14 15 16 16 16 16 16 16 16 16 17 17 17
35 34 34 35 37 39 40 40 40 41 40 39 39 37 32 30 31 32 32 33 32 29 26 25 25 24 24 25 25 26 27 27 26 26 27 26 24 23 23 23 22 22 21 18 15 13 13 15 16 16 17 18 18 19 20 18 16 15 14 14 15 16 17 18 18 17 17 17 17 17 17 17 17 17
33 32 33 34 36 38 39 39 40 40 40 40 41 36 30 29 31 31 29 30 30 29 28 26 24 24 24 25 26 27 27 25 24 25 26 25 24 24 23 21 21 21 21 18 16 15 16 17 18 19 20 21 21 21 21 20 18 17 16 17 18 19 19 20 20 19 18 18 18 19 19 18 17 17
32 32 32 34 36 38 38 37 37 37 38 40 40 34 29 31 34 33 31 29 29 28 27 27 26 26 27 28 29 29 26 25 24 25 25 24 23 23 22 20 20 20 20 18 18 18 19 19 20 21 23 23 23 23 23 23 22 21 21 21 22 22 21 22 22 22 21 20 20 20 20 20 18 18
Wind_Direction
230 222 220 222 221 221 228 235 245 259 269 270 273 284 296 306 314 315 314 311 297 289 283 279 283 287 294 300 306 313 321 325 325 324 324 326 329 332 336 340 344 348 351 353 350 346 343 340 339 337 330 325 326 327 327 329 329 326 322 319 316 313 312 311 311 313 314 313 314 315 315 320 323 314
238 232 229 230 231 231 234 241 248 256 262 266 273 284 293 302 309 306 307 313 303 287 288 288 289 289 292 299 306 313 319 322 323 325 329 332 334 336 341 345 348 350 350 343 335 332 331 331 331 328 323 322 325 327 329 329 325 319 315 313 313 313 313 315 316 318 318 316 313 312 312 316 322 320
245 245 240 239 239 237 238 241 248 255 259 264 269 277 286 294 295 292 299 306 299 286 287 287 293 300 301 305 311 315 320 323 326 331 335 334 332 333 336 339 340 341 337 330 328 329 331 330 329 326 325 325 327 328 327 322 316 314 315 316 317 319 320 320 320 318 317 315 313 313 312 313 316 317
248 250 250 248 246 242 239 239 243 251 256 261 266 272 279 281 277 274 288 295 288 277 286 286 288 298 303 309 315 319 326 331 333 339 340 332 327 326 325 328 335 336 334 333 332 331 331 331 329 328 328 329 327 325 319 314 314 317 318 319 320 321 321 320 318 315 311 310 309 309 309 310 310 310
253 253 253 254 254 250 247 243 241 246 251 256 261 267 270 268 267 270 281 291 289 269 272 286 289 297 304 313 324 326 331 338 341 346 343 331 324 324 325 333 341 343 341 338 331 328 330 331 330 332 332 328 323 318 315 316 319 320 319 321 324 325 325 325 325 324 321 317 314 312 309 307 305 303
256 256 256 255 256 256 255 252 248 246 247 252 256 260 263 263 266 270 276 288 292 285 273 278 286 299 307 317 331 333 336 342 346 348 346 339 334 334 336 342 346 346 343 337 331 330 331 332 334 335 331 322 317 316 319 321 323 323 325 328 330 331 333 335 336 335 335 332 329 325 319 312 306 299
258 259 259 258 256 258 260 259 257 254 252 253 256 258 262 265 267 270 273 281 290 295 293 284 288 303 312 322 333 336 338 343 346 346 344 344 345 345 345 347 347 346 343 340 337 336 336 337 340 334 321 317 319 321 324 326 328 330 331 332 334 336 339 339 339 337 337 336 335 332 326 319 311 301
258 260 262 262 260 260 262 263 263 262 261 260 261 261 263 266 268 269 271 275 283 291 294 293 298 308 314 323 332 335 337 342 345 344 342 344 347 349 350 349 348 348 346 345 343 340 341 343 338 324 321 324 325 327 331 333 334 335 335 336 338 339 339 338 337 337 336 338 339 338 333 325 316 305
257 259 262 264 264 263 264 265 265 266 266 263 262 262 263 266 270 270 269 272 277 283 290 294 298 304 311 317 328 335 336 340 344 340 341 346 345 347 355 352 349 350 347 346 343 341 346 345 330 327 331 333 332 336 338 338 337 336 337 339 340 339 338 337 337 337 338 341 343 342 338 333 324 310
257 258 261 263 265 264 264 265 266 267 268 265 262 263 265 269 273 272 269 271 274 278 284 290 294 300 307 313 323 334 337 341 343 337 338 347 346 346 357 355 345 344 344 348 347 345 349 342 332 335 339 338 338 340 340 338 337 338 339 341 340 338 336 336 337 338 340 343 344 341 338 338 334 318
258 257 258 260 262 263 263 264 267 269 271 271 269 268 269 271 273 273 272 272 275 277 280 284 290 297 304 310 320 331 337 341 342 335 333 344 349 349 356 354 340 333 338 351 353 350 352 344 337 340 342 339 339 340 339 339 339 340 341 341 338 336 336 337 338 340 342 344 344 342 338 338 339 331
259 257 256 256 257 260 262 262 265 269 272 274 274 274 274 275 274 275 275 276 276 277 279 282 289 295 299 306 317 327 335 339 339 332 329 336 344 347 353 354 338 326 337 355 357 353 356 349 340 342 342 339 340 340 340 339 340 341 342 339 336 336 337 338 339 341 344 346 344 342 339 337 340 340
260 258 256 254 254 257 260 262 264 266 269 272 274 275 276 276 276 276 276 277 277 278 280 282 288 293 294 302 315 325 334 338 336 330 325 329 334 336 345 352 335 323 336 357 357 353 356 349 342 342 342 340 341 341 340 339 341 342 341 338 335 336 337 338 338 341 345 347 345 343 341 339 339 340
260 258 257 256 255 256 258 261 263 264 266 269 271 272 273 274 275 274 274 275 274 277 280 282 288 292 292 300 315 323 331 334 330 323 319 320 324 327 335 347 336 324 332 349 352 349 349 345 341 341 342 341 342 342 340 340 342 342 340 336 335 337 338 337 338 341 347 350 349 346 344 343 341 338
260 259 258 257 257 258 259 260 262 264 265 266 267 269 272 274 273 270 269 270 271 275 281 284 288 292 293 300 313 321 326 327 322 315 312 313 316 321 327 333 331 325 327 338 345 343 342 341 338 339 341 341 342 342 341 341 341 340 338 336 336 338 338 337 337 341 347 352 352 349 346 345 344 339
261 261 259 258 258 258 259 260 261 262 263 264 265 268 272 274 270 263 260 264 268 274 280 283 284 287 292 299 309 320 322 319 314 308 304 305 307 312 318 322 324 322 322 329 335 334 335 335 334 335 339 340 341 341 340 339 339 338 338 337 337 338 337 336 336 340 347 353 355 353 349 347 348 344
261 261 261 260 259 258 258 259 260 261 261 262 264 267 271 272 268 262 259 260 265 272 278 280 281 284 291 296 304 316 317 311 306 299 294 295 298 304 312 315 318 317 314 318 325 326 328 330 329 331 335 338 339 340 338 336 336 337 337 337 338 337 335 334 336 341 347 353 357 357 353 349 350 348
262 262 262 262 260 258 258 258 259 260 260 261 262 266 269 270 268 265 263 262 264 269 275 279 281 284 289 293 299 309 309 303 298 293 288 289 291 298 306 309 312 311 306 310 318 320 322 325 325 327 332 335 336 338 336 334 334 335 336 337 337 335 333 334 338 343 347 352 357 1 357 351 350 350
263 262 263 262 260 259 257 255 256 257 258 260 262 264 265 267 268 267 267 267 267 268 271 275 279 282 285 289 293 298 299 296 293 288 284 284 287 292 297 301 306 306 302 305 312 314 317 321 322 325 330 332 334 336 334 331 332 333 334 336 336 333 332 335 339 344 347 351 357 2 1 353 349 350
262 262 261 260 259 258 256 253 251 252 256 259 261 263 263 264 266 266 266 268 268 268 268 270 274 277 280 284 286 287 289 290 290 287 281 279 283 288 290 294 302 304 301 303 307 308 312 318 321 324 327 329 331 332 331 329 329 331 333 335 334 332 333 336 340 343 346 350 356 3 5 357 349 349
262 261 260 259 258 258 256 253 250 251 255 260 262 263 263 265 266 265 263 265 266 267 269 270 271 273 276 278 280 281 283 285 286 286 283 280 281 284 285 289 298 301 300 302 304 306 310 316 320 323 324 325 328 329 328 328 328 329 331 333 332 330 333 337 340 343 347 351 357 4 8 3 353 349
262 261 260 259 258 257 255 253 252 252 257 261 262 263 265 268 268 264 261 264 267 268 271 271 271 272 273 274 275 275 277 279 281 283 284 281 279 279 281 287 295 297 297 300 302 304 308 314 319 321 322 322 324 326 326 325 326 327 330 331 330 329 333 338 341 344 348 352 357 3 9 10 2 354
261 261 260 259 258 256 255 253 253 255 259 262 263 264 268 270 268 264 264 268 271 272 274 273 271 271 270 269 270 271 275 278 281 283 282 278 274 275 278 284 290 294 296 300 303 304 305 310 316 319 320 321 322 324 325 325 325 327 329 330 328 329 333 337 341 346 349 352 357 2 7 11 10 3
259 259 259 259 257 255 253 252 253 256 260 262 264 265 268 269 267 267 271 274 275 276 275 274 273 271 269 269 270 274 278 281 283 283 278 272 269 271 275 280 285 290 295 299 300 300 302 308 313 315 316 317 317 319 323 326 326 327 329 330 330 331 334 337 340 346 351 355 360 4 7 10 11 10
259 259 258 258 256 255 253 253 255 258 262 265 267 268 268 269 270 273 276 277 277 278 277 275 274 274 274 275 278 281 283 283 282 280 275 270 269 271 276 282 284 285 290 293 294 296 300 305 309 311 311 313 313 316 321 325 326 327 329 332 334 334 336 339 342 344 350 357 4 9 9 8 8 10
259 259 259 259 258 258 258 258 259 262 266 268 270 270 272 274 276 277 278 279 279 279 278 277 277 277 278 280 283 285 284 282 281 278 275 272 273 275 279 281 282 283 287 289 289 292 297 302 304 306 307 311 316 320 325 328 328 330 334 338 339 338 338 343 346 346 349 356 5 12 14 11 7 6
260 262 262 262 263 264 265 266 267 268 270 271 272 274 276 278 280 280 280 280 279 279 278 278 278 278 279 281 284 285 283 282 281 280 277 275 274 275 275 276 279 281 282 281 283 287 293 297 300 301 303 310 318 323 326 331 336 340 342 344 345 345 345 349 351 351 352 356 2 9 14 15 13 8
260 263 264 266 267 269 270 272 273 273 273 274 276 278 279 279 279 279 279 279 278 278 277 277 276 276 277 279 281 282 281 281 280 277 275 275 274 272 269 269 270 271 271 274 279 284 290 293 295 297 300 309 319 323 326 333 342 347 351 352 353 355 358 360 358 357 358 0 2 4 6 10 14 14
260 263 265 268 270 271 273 273 274 274 274 277 280 282 281 278 276 275 275 275 274 274 273 273 273 274 275 276 277 277 276 274 272 270 271 272 270 267 263 262 263 264 267 273 278 282 286 289 289 292 300 310 318 323 328 334 340 347 355 0 4 9 13 14 11 6 4 5 6 5 4 5 6 8
261 263 265 267 268 269 271 271 272 272 273 276 278 279 279 276 273 272 271 271 271 270 270 270 271 271 272 273 271 268 266 265 265 265 266 265 263 261 259 257 256 257 261 268 275 278 281 282 282 285 296 310 317 323 329 334 336 345 357 8 18 24 25 26 24 19 15 12 10 8 7 6 4 3
258 259 261 263 264 266 267 268 268 269 271 272 274 276 276 274 272 271 271 271 270 268 266 266 267 267 267 264 260 256 258 259 260 260 258 256 254 254 251 248 248 250 252 260 270 274 273 272 271 273 284 302 314 323 331 333 335 351 8 19 28 32 32 32 32 28 24 20 15 11 8 7 5 4
256 257 258 260 261 262 263 264 265 267 268 269 271 273 272 270 269 270 271 271 267 263 260 259 260 259 256 252 250 252 255 256 256 254 250 248 248 248 245 243 246 247 245 249 260 263 259 258 259 261 271 287 303 323 335 333 341 9 27 33 34 32 31 31 32 32 29 26 21 17 12 8 6 5
257 256 256 258 259 259 260 262 264 265 267 267 268 268 266 264 265 267 269 268 265 260 256 255 254 252 251 249 250 252 255 255 254 251 246 243 242 241 240 243 247 247 245 249 253 250 244 243 244 246 257 273 284 300 315 307 356 27 35 38 37 32 27 26 27 27 27 26 24 21 17 13 10 8
257 257 256 257 257 257 258 259 260 261 262 262 261 260 258 258 259 260 261 263 262 258 254 252 251 250 250 251 251 252 254 255 252 249 245 243 239 237 239 244 245 245 248 250 247 242 236 232 232 231 233 243 256 238 214 216 270 21 28 30 32 29 25 22 22 22 22 21 20 20 19 17 15 12
256 256 257 258 257 256 254 253 253 254 254 254 254 253 253 252 251 252 254 258 260 257 251 248 248 249 250 251 252 252 253 254 251 248 245 241 236 236 240 243 245 248 250 245 240 239 235 230 228 226 218 213 219 222 214 217 245 340 16 19 21 22 20 18 18 19 19 17 14 14 15 16 16 15
254 255 256 257 256 255 252 250 249 249 250 250 251 252 251 250 251 252 253 256 260 259 253 248 248 251 253 254 253 253 253 252 250 249 246 238 233 234 239 242 248 254 253 244 239 240 236 230 229 226 217 208 207 214 219 224 244 298 352 7 10 11 12 12 13 14 15 14 11 9 9 10 12 14
253 254 254 253 253 253 253 252 251 251 251 252 253 254 254 254 255 255 255 254 254 255 254 252 252 253 255 255 254 252 252 252 251 251 247 238 228 229 236 241 246 249 245 239 241 241 235 231 230 227 220 215 213 216 227 238 259 291 323 347 355 358 360 2 4 7 10 10 8 6 5 4 6 9
254 254 254 253 252 252 252 252 252 252 252 252 253 254 256 256 254 253 253 251 249 249 250 251 251 253 255 254 253 252 252 253 252 251 245 234 224 226 235 240 243 243 238 235 238 238 232 231 231 229 227 227 228 231 241 255 274 290 306 323 333 337 343 348 352 356 1 3 3 2 1 359 0 3
254 254 254 254 253 251 250 250 251 251 252 253 253 254 256 256 254 251 250 247 243 242 245 247 250 252 253 252 252 253 254 256 255 248 238 229 225 231 237 240 241 241 237 233 234 233 230 229 231 233 236 239 244 253 258 267 278 285 293 307 315 319 325 331 337 342 347 351 354 355 355 355 355 357
255 255 256 255 254 253 251 250 251 252 254 254 254 255 256 257 254 249 246 244 241 240 244 246 247 249 249 248 249 251 253 255 254 246 234 228 230 236 239 240 242 241 236 231 231 235 236 237 237 241 246 250 253 255 259 265 273 280 289 299 304 308 313 318 322 327 332 337 341 344 347 349 350 351
254 256 257 257 257 256 254 252 253 254 254 255 256 256 258 258 254 249 248 249 247 246 247 247 245 246 248 247 246 245 246 246 243 237 230 229 233 236 238 238 239 235 230 229 235 243 247 247 243 241 242 244 244 248 255 264 273 282 289 291 294 300 305 308 311 314 318 323 327 331 336 340 342 344
254 257 259 260 259 258 256 254 254 254 254 255 255 254 255 255 253 250 250 250 249 248 248 246 244 244 247 247 243 239 236 234 232 228 227 228 230 232 234 234 232 230 228 232 242 250 248 238 231 232 235 238 242 248 256 265 275 283 284 284 289 295 297 299 303 306 309 312 316 319 324 329 333 337
253 255 258 260 260 259 258 257 256 256 256 256 254 252 251 249 246 244 244 244 245 247 246 242 241 244 247 246 240 233 228 228 228 226 226 226 227 228 230 230 229 228 230 236 244 244 236 229 229 233 238 240 242 249 257 265 273 278 279 281 285 288 290 292 295 297 300 304 307 309 313 316 321 326
253 255 257 260 261 261 260 259 258 258 258 256 253 249 244 238 236 236 234 234 239 243 244 242 243 244 242 237 232 228 226 227 227 226 225 226 226 225 227 229 228 227 228 234 238 238 236 236 238 241 245 246 249 254 261 268 272 274 275 276 277 280 285 289 290 291 294 297 300 303 305 307 309 313
253 255 258 260 260 261 261 260 259 259 259 256 252 242 226 219 224 227 226 228 233 236 237 240 240 236 230 227 226 225 224 222 221 221 223 224 224 223 225 227 226 225 227 233 237 239 241 244 246 249 252 254 257 260 264 268 271 271 270 269 272 276 281 282 284 287 289 292 294 298 300 299 300 303
Height
1601 1601 1602 1602 1602 1603 1603 1603 1603 1603 1603 1603 1603 1603 1603 1602 1602 1601 1600 1599 1599 1599 1598 1598 1598 1598 1598 1597 1596 1595 1595 1593 1592 1591 1590 1589 1588 1588 1587 1586 1585 1584 1583 1582 1581 1580 1578 1577 1575 1573 1572 1570 1568 1566 1565 1563 1561 1559 1557 1555 1553 1551 1549 1548 1546 1544 1543 1541 1539 1538 1537 1536 1536 1535
1600 1601 1601 1601 1602 1602 1602 1602 1603 1603 1603 1603 1603 1603 1602 1602 1602 1602 1601 1600 1599 1599 1599 1598 1598 1598 1597 1597 1596 1595 1594 1593 1592 1591 1590 1589 1588 1587 1586 1585 1584 1583 1582 1581 1580 1578 1577 1575 1574 1572 1570 1569 1567 1565 1563 1561 1559 1557 1554 1553 1551 1549 1548 1546 1544 1543 1541 1540 1538 1536 1535 1534 1533 1532
1600 1600 1600 1601 1601 1602 1602 1602 1602 1602 1602 1602 1602 1602 1602 1602 1602 1602 1601 1600 1599 1599 1599 1598 1598 1597 1597 1596 1596 1595 1594 1593 1592 1591 1589 1588 1587 1586 1586 1585 1584 1583 1582 1580 1579 1578 1576 1574 1572 1571 1569 1567 1565 1563 1561 1559 1556 1555 1553 1552 1550 1548 1547 1545 1543 1541 1540 1538 1537 1535 1534 1532 1531 1530
1599 1599 1600 1600 1600 1601 1601 1601 1602 1602 1602 1602 1602 1602 1602 1602 1602 1601 1601 1600 1599 1599 1598 1598 1598 1597 1597 1596 1596 1595 1594 1593 1592 1590 1589 1587 1586 1586 1585 1584 1583 1582 1581 1579 1578 1577 1575 1573 1571 1569 1567 1565 1563 1561 1558 1557 1555 1554 1552 1551 1549 1548 1546 1544 1542 1540 1538 1536 1534 1533 1531 1530 1529 1528
1598 1599 1599 1599 1600 1600 1600 1601 1601 1601 1601 1601 1601 1602 1602 1602 1602 1601 1600 1599 1598 1598 1598 1598 1598 1597 1596 1596 1595 1594 1594 1593 1591 1590 1589 1587 1586 1585 1584 1584 1583 1581 1580 1578 1577 1575 1573 1571 1569 1567 1565 1563 1561 1559 1557 1556 1554 1553 1552 1550 1548 1547 1544 1542 1539 1537 1535 1533 1532 1530 1529 1528 1527 1525
1597 1598 1598 1598 1599 1600 1600 1600 1600 1601 1601 1601 1601 1601 1601 1601 1601 1601 1600 1599 1598 1597 1597 1597 1597 1597 1596 1596 1595 1594 1593 1592 1590 1589 1588 1587 1586 1585 1584 1583 1581 1580 1578 1577 1575 1573 1572 1570 1568 1566 1563 1561 1559 1558 1557 1555 1554 1552 1551 1549 1547 1544 1542 1539 1536 1534 1532 1531 1530 1528 1527 1525 1524 1523
1596 1596 1597 1597 1598 1599 1599 1599 1599 1600 1600 1600 1600 1600 1600 1600 1600 1600 1600 1599 1598 1597 1596 1596 1596 1596 1596 1595 1595 1594 1593 1591 1590 1589 1588 1586 1585 1584 1583 1582 1580 1578 1577 1575 1574 1572 1571 1569 1567 1564 1561 1560 1559 1558 1556 1555 1553 1551 1549 1547 1544 1542 1539 1537 1534 1532 1530 1529 1527 1526 1524 1523 1521 1520
1595 1595 1596 1596 1598 1598 1598 1598 1599 1599 1599 1599 1599 1599 1599 1599 1600 1600 1599 1599 1598 1597 1595 1595 1596 1595 1595 1594 1594 1593 1592 1591 1590 1588 1587 1585 1584 1583 1582 1580 1579 1578 1576 1575 1573 1572 1570 1568 1565 1562 1561 1560 1559 1557 1556 1554 1552 1550 1547 1545 1542 1540 1538 1535 1533 1530 1528 1527 1525 1523 1521 1520 1518 1517
1594 1594 1595 1595 1596 1597 1597 1597 1598 1598 1598 1599 1599 1599 1599 1599 1599 1599 1599 1598 1598 1597 1595 1595 1595 1595 1594 1594 1593 1593 1591 1590 1589 1588 1586 1585 1583 1582 1581 1580 1578 1577 1576 1575 1573 1571 1570 1567 1564 1562 1561 1560 1558 1556 1555 1552 1550 1548 1546 1543 1541 1539 1537 1534 1532 1529 1527 1525 1523 1521 1519 1518 1516 1515
1592 1593 1593 1594 1595 1595 1596 1596 1597 1597 1598 1598 1598 1598 1598 1598 1598 1598 1598 1597 1597 1596 1595 1594 1594 1593 1593 1593 1592 1592 1591 1589 1587 1586 1585 1584 1582 1581 1580 1579 1578 1576 1575 1574 1572 1571 1569 1566 1564 1562 1561 1559 1557 1555 1553 1551 1549 1547 1544 1542 1540 1538 1536 1533 1530 1528 1525 1523 1522 1519 1517 1516 1514 1513
1591 1591 1592 1593 1593 1594 1594 1595 1596 1596 1597 1597 1597 1597 1598 1598 1597 1597 1597 1597 1596 1595 1595 1594 1593 1593 1592 1592 1591 1591 1590 1589 1587 1584 1583 1582 1581 1580 1579 1578 1577 1576 1575 1574 1572 1570 1568 1566 1563 1562 1560 1558 1556 1554 1552 1550 1548 1545 1543 1541 1540 1537 1535 1532 1529 1527 1524 1522 1520 1517 1515 1514 1512 1511
1589 1589 1590 1591 1592 1592 1593 1594 1594 1595 1595 1596 1596 1596 1597 1597 1596 1596 1596 1596 1595 1595 1594 1593 1593 1592 1591 1591 1591 1590 1589 1588 1586 1584 1582 1581 1580 1579 1578 1577 1576 1575 1574 1573 1571 1569 1568 1566 1563 1561 1560 1558 1555 1553 1551 1549 1547 1545 1543 1541 1539 1536 1534 1531 1528 1526 1524 1521 1518 1516 1514 1512 1511 1509
1586 1587 1588 1589 1590 1591 1591 1592 1593 1593 1594 1594 1594 1595 1595 1595 1595 1595 1595 1595 1594 1594 1593 1593 1593 1591 1590 1590 1590 1589 1588 1587 1585 1584 1582 1581 1579 1578 1578 1577 1576 1574 1573 1572 1570 1569 1567 1565 1562 1561 1559 1556 1554 1552 1550 1548 1546 1544 1542 1540 1538 1535 1533 1530 1527 1525 1523 1520 1517 1514 1512 1510 1509 1508
1584 1585 1586 1587 1588 1589 1590 1591 1591 1592 1593 1593 1593 1594 1594 1594 1594 1594 1594 1594 1593 1593 1593 1592 1592 1591 1589 1589 1589 1588 1587 1586 1584 1583 1581 1580 1579 1578 1577 1576 1575 1574 1572 1571 1570 1568 1566 1564 1562 1560 1558 1555 1554 1552 1549 1547 1546 1544 1542 1540 1537 1534 1532 1529 1526 1524 1522 1519 1516 1512 1510 1508 1507 1506
1581 1583 1584 1585 1586 1587 1588 1589 1590 1590 1591 1591 1592 1592 1593 1593 1593 1592 1592 1592 1592 1592 1592 1591 1591 1590 1588 1588 1588 1587 1586 1584 1583 1582 1581 1579 1578 1577 1576 1575 1575 1573 1572 1571 1569 1567 1566 1564 1561 1559 1557 1555 1553 1551 1549 1547 1545 1543 1541 1539 1536 1533 1531 1528 1525 1523 1521 1518 1514 1511 1509 1507 1505 1504
1578 1580 1581 1582 1583 1584 1585 1587 1588 1588 1589 1590 1590 1591 1591 1591 1591 1591 1591 1591 1591 1591 1590 1590 1589 1588 1587 1587 1586 1586 1584 1583 1582 1581 1580 1578 1577 1576 1575 1574 1573 1572 1571 1570 1568 1567 1565 1564 1561 1559 1556 1554 1552 1550 1548 1546 1545 1543 1541 1538 1535 1533 1530 1527 1525 1522 1519 1517 1514 1510 1507 1505 1504 1503
1575 1577 1578 1579 1580 1582 1583 1584 1585 1586 1587 1587 1588 1588 1589 1589 1589 1589 1590 1590 1590 1589 1589 1588 1587 1587 1587 1585 1585 1585 1583 1581 1580 1579 1578 1577 1576 1575 1574 1573 1572 1571 1570 1569 1567 1566 1565 1563 1561 1558 1556 1554 1552 1550 1548 1546 1544 1542 1540 1538 1535 1532 1530 1527 1524 1521 1518 1515 1513 1510 1506 1504 1503 1501
1572 1573 1575 1576 1577 1579 1580 1581 1582 1582 1583 1584 1585 1585 1586 1586 1587 1587 1587 1588 1588 1588 1587 1586 1585 1585 1585 1584 1583 1583 1582 1580 1579 1578 1577 1576 1575 1573 1573 1572 1570 1569 1568 1567 1566 1564 1563 1562 1560 1558 1555 1553 1551 1550 1548 1546 1544 1542 1540 1538 1535 1532 1529 1526 1523 1520 1517 1514 1512 1509 1505 1503 1501 1500
1568 1570 1571 1572 1573 1574 1575 1576 1578 1579 1580 1580 1581 1581 1582 1583 1583 1584 1584 1585 1585 1585 1584 1584 1583 1583 1583 1582 1581 1581 1580 1578 1577 1576 1575 1574 1573 1572 1571 1570 1569 1568 1566 1565 1564 1563 1561 1560 1559 1557 1555 1553 1551 1549 1548 1546 1544 1542 1540 1538 1535 1532 1529 1526 1522 1519 1516 1513 1511 1508 1505 1502 1500 1499
1564 1566 1567 1568 1569 1570 1571 1572 1573 1575 1576 1576 1577 1577 1578 1578 1579 1579 1580 1581 1581 1581 1581 1581 1580 1580 1580 1579 1579 1578 1577 1576 1575 1574 1572 1571 1570 1569 1568 1568 1567 1566 1564 1563 1562 1561 1559 1558 1557 1556 1554 1552 1550 1549 1547 1546 1544 1542 1540 1538 1535 1532 1529 1526 1522 1519 1516 1513 1510 1508 1505 1502 1500 1498
1560 1562 1562 1564 1565 1565 1567 1568 1570 1571 1572 1572 1573 1573 1574 1574 1574 1575 1576 1576 1577 1577 1577 1577 1577 1577 1576 1576 1576 1575 1574 1573 1572 1570 1569 1569 1568 1567 1565 1565 1565 1564 1562 1561 1560 1559 1558 1557 1556 1554 1552 1550 1549 1548 1547 1545 1543 1541 1539 1537 1534 1532 1529 1526 1522 1519 1516 1513 1510 1507 1505 1502 1500 1498
1556 1557 1558 1559 1561 1562 1563 1565 1566 1568 1568 1569 1569 1570 1570 1571 1570 1571 1572 1572 1572 1573 1573 1573 1573 1573 1573 1573 1572 1572 1571 1571 1570 1568 1567 1567 1566 1565 1563 1563 1562 1561 1560 1559 1559 1557 1556 1556 1555 1553 1551 1549 1548 1548 1546 1544 1543 1541 1538 1536 1534 1531 1529 1526 1523 1519 1516 1513 1510 1507 1505 1503 1500 1498
1552 1553 1554 1555 1557 1558 1560 1561 1563 1564 1565 1566 1567 1568 1568 1568 1567 1568 1569 1569 1569 1569 1569 1569 1569 1569 1569 1569 1569 1568 1568 1567 1567 1565 1565 1564 1564 1562 1562 1561 1560 1559 1558 1557 1557 1556 1555 1554 1553 1552 1550 1549 1547 1546 1545 1543 1541 1540 1538 1536 1534 1531 1529 1526 1523 1520 1517 1513 1510 1507 1504 1503 1501 1499
1548 1549 1550 1551 1553 1555 1557 1558 1560 1561 1562 1563 1564 1565 1565 1565 1565 1566 1567 1567 1566 1566 1566 1566 1566 1565 1566 1566 1565 1565 1565 1564 1564 1563 1562 1562 1561 1560 1559 1559 1558 1557 1556 1556 1555 1554 1553 1552 1551 1551 1550 1548 1547 1545 1544 1542 1540 1538 1537 1535 1533 1531 1528 1525 1523 1520 1517 1514 1511 1507 1504 1502 1501 1499
1543 1545 1546 1548 1550 1552 1554 1556 1557 1558 1559 1560 1561 1562 1562 1562 1563 1564 1564 1564 1564 1563 1563 1562 1562 1562 1562 1562 1562 1562 1562 1562 1561 1560 1560 1559 1558 1558 1557 1557 1556 1555 1555 1554 1554 1553 1552 1550 1549 1549 1548 1547 1546 1545 1543 1541 1539 1537 1536 1534 1532 1530 1528 1525 1522 1520 1517 1515 1512 1508 1504 1502 1500 1499
1539 1540 1542 1544 1546 1549 1551 1553 1554 1556 1557 1557 1558 1558 1559 1560 1561 1561 1561 1561 1560 1560 1559 1559 1558 1559 1559 1559 1559 1559 1559 1559 1559 1558 1557 1557 1556 1556 1555 1555 1554 1553 1553 1552 1552 1551 1550 1549 1548 1547 1546 1545 1545 1543 1542 1541 1539 1537 1535 1533 1532 1530 1527 1524 1522 1519 1517 1514 1511 1509 1506 1503 1501 1499
1535 1536 1538 1540 1543 1545 1547 1549 1551 1553 1554 1554 1554 1555 1556 1557 1557 1557 1557 1557 1556 1556 1555 1555 1555 1555 1556 1556 1556 1556 1556 1556 1556 1556 1555 1555 1554 1554 1553 1553 1552 1552 1551 1550 1550 1549 1548 1547 1546 1545 1545 1544 1543 1542 1540 1539 1538 1536 1534 1533 1531 1529 1527 1524 1522 1519 1516 1513 1511 1509 1507 1506 1503 1501
1531 1532 1534 1536 1539 1541 1543 1545 1547 1548 1550 1550 1551 1552 1553 1554 1554 1554 1553 1552 1552 1551 1551 1551 1551 1551 1552 1552 1552 1553 1554 1554 1554 1553 1553 1553 1552 1552 1551 1551 1550 1549 1548 1548 1547 1546 1546 1545 1544 1544 1543 1542 1542 1541 1539 1538 1536 1534 1533 1532 1530 1529 1527 1524 1522 1519 1516 1513 1510 1508 1506 1505 1504 1502
1526 1528 1530 1533 1535 1537 1539 1541 1542 1544 1545 1546 1548 1550 1550 1550 1550 1550 1549 1548 1547 1547 1546 1547 1547 1547 1548 1549 1549 1550 1551 1550 1550 1550 1550 1550 1550 1550 1549 1549 1547 1546 1545 1545 1544 1543 1543 1543 1542 1542 1541 1541 1540 1539 1538 1537 1535 1533 1532 1531 1529 1528 1526 1524 1522 1519 1516 1513 1510 1507 1505 1503 1502 1501
1522 1524 1526 1528 1530 1532 1534 1536 1537 1538 1540 1543 1544 1546 1546 1546 1545 1545 1544 1544 1543 1542 1542 1542 1543 1543 1545 1546 1547 1547 1547 1546 1546 1547 1547 1547 1547 1547 1547 1545 1544 1542 1542 1541 1540 1539 1539 1539 1539 1539 1539 1539 1538 1537 1536 1535 1534 1533 1531 1530 1528 1527 1525 1523 1521 1519 1516 1513 1510 1508 1507 1505 1503 1501
1518 1519 1521 1523 1525 1527 1529 1530 1532 1533 1535 1538 1540 1541 1541 1541 1540 1540 1540 1539 1539 1538 1537 1538 1539 1540 1542 1543 1543 1543 1543 1542 1542 1543 1543 1543 1543 1543 1542 1541 1540 1538 1537 1537 1536 1536 1536 1536 1536 1536 1536 1536 1535 1535 1534 1534 1533 1532 1531 1529 1528 1526 1525 1523 1521 1519 1517 1514 1512 1509 1508 1506 1504 1502
1514 1516 1517 1518 1520 1522 1523 1524 1526 1528 1530 1532 1534 1535 1535 1535 1535 1535 1535 1535 1534 1533 1533 1534 1535 1537 1538 1538 1539 1539 1539 1538 1539 1539 1539 1539 1539 1538 1537 1536 1535 1534 1533 1533 1533 1533 1533 1533 1533 1533 1533 1533 1533 1532 1532 1532 1531 1531 1530 1529 1527 1526 1524 1523 1521 1519 1517 1515 1513 1511 1508 1506 1504 1502
1511 1512 1513 1514 1515 1516 1518 1519 1521 1523 1525 1526 1527 1528 1528 1528 1528 1529 1530 1530 1529 1529 1530 1530 1532 1533 1534 1534 1534 1535 1534 1535 1536 1536 1536 1536 1535 1534 1533 1533 1532 1531 1531 1531 1531 1531 1531 1530 1530 1530 1531 1531 1530 1530 1530 1530 1530 1529 1529 1528 1527 1526 1524 1523 1521 1519 1517 1516 1514 1512 1509 1507 1505 1503
1507 1507 1508 1509 1510 1512 1513 1514 1516 1517 1519 1520 1520 1520 1520 1520 1520 1521 1522 1523 1523 1524 1525 1527 1528 1528 1529 1529 1530 1530 1531 1531 1532 1533 1533 1532 1531 1530 1531 1531 1530 1530 1531 1530 1530 1530 1530 1529 1528 1528 1528 1528 1528 1528 1528 1527 1527 1527 1527 1527 1526 1525 1524 1523 1521 1519 1517 1515 1514 1512 1511 1509 1507 1504
1501 1502 1503 1504 1506 1507 1508 1509 1510 1511 1513 1513 1514 1514 1513 1512 1511 1511 1513 1515 1516 1518 1519 1521 1522 1523 1523 1524 1526 1526 1527 1528 1529 1529 1529 1528 1527 1528 1529 1529 1529 1528 1528 1528 1528 1528 1528 1528 1527 1526 1526 1526 1526 1526 1526 1526 1525 1525 1525 1525 1525 1524 1523 1522 1521 1519 1517 1515 1514 1512 1511 1509 1508 1505
1494 1496 1498 1499 1501 1502 1503 1504 1506 1507 1508 1509 1509 1509 1508 1507 1505 1505 1507 1509 1511 1512 1513 1515 1516 1518 1520 1521 1522 1522 1523 1524 1525 1526 1526 1525 1524 1525 1526 1527 1527 1526 1526 1526 1526 1527 1527 1527 1527 1526 1525 1524 1524 1524 1524 1524 1524 1524 1524 1524 1523 1523 1522 1521 1520 1518 1516 1515 1514 1512 1511 1509 1508 1506
1488 1490 1492 1493 1495 1497 1498 1500 1502 1503 1504 1505 1506 1505 1504 1503 1502 1502 1503 1505 1506 1507 1508 1510 1511 1514 1516 1517 1517 1518 1518 1520 1521 1522 1522 1521 1520 1521 1523 1524 1525 1524 1524 1524 1525 1525 1526 1526 1526 1525 1525 1523 1523 1523 1523 1523 1522 1522 1522 1522 1522 1522 1521 1520 1519 1518 1516 1515 1513 1512 1511 1510 1508 1506
1482 1484 1485 1487 1489 1491 1494 1496 1498 1498 1499 1500 1500 1500 1499 1498 1498 1498 1498 1500 1500 1501 1503 1505 1506 1509 1511 1512 1512 1512 1513 1515 1517 1518 1518 1517 1516 1517 1519 1520 1521 1522 1522 1523 1524 1524 1524 1525 1525 1525 1524 1523 1522 1522 1521 1521 1521 1521 1521 1521 1521 1521 1520 1519 1518 1517 1516 1514 1513 1512 1511 1509 1508 1506
1476 1478 1479 1481 1483 1486 1488 1491 1492 1492 1492 1493 1494 1493 1493 1493 1493 1493 1493 1494 1494 1495 1497 1500 1502 1504 1506 1507 1508 1508 1510 1512 1513 1513 1513 1513 1513 1515 1517 1518 1519 1520 1520 1521 1521 1521 1522 1522 1523 1523 1523 1522 1521 1521 1520 1519 1519 1519 1519 1519 1519 1519 1519 1518 1517 1516 1514 1513 1512 1511 1510 1509 1507 1506
1471 1472 1474 1476 1478 1481 1483 1485 1486 1487 1487 1488 1488 1488 1489 1490 1490 1490 1489 1489 1489 1490 1492 1495 1497 1499 1500 1502 1504 1505 1507 1508 1509 1510 1510 1511 1512 1513 1515 1517 1518 1518 1518 1518 1519 1519 1519 1520 1520 1521 1521 1521 1520 1519 1518 1517 1517 1517 1518 1518 1518 1517 1517 1516 1515 1514 1513 1512 1511 1510 1508 1508 1506 1505
1466 1468 1469 1471 1474 1476 1478 1480 1481 1482 1482 1483 1484 1484 1486 1487 1488 1488 1487 1487 1486 1486 1488 1490 1492 1494 1496 1497 1500 1502 1503 1505 1506 1506 1507 1509 1511 1512 1513 1515 1516 1516 1517 1517 1517 1517 1518 1518 1519 1519 1519 1519 1518 1517 1516 1515 1515 1516 1516 1516 1516 1515 1515 1514 1514 1513 1512 1510 1509 1508 1507 1506 1505 1504
1461 1463 1465 1467 1470 1471 1472 1474 1475 1476 1477 1478 1479 1480 1482 1484 1485 1484 1484 1484 1483 1484 1485 1486 1488 1489 1491 1494 1496 1498 1500 1501 1502 1503 1504 1506 1508 1510 1511 1512 1513 1514 1515 1515 1516 1516 1517 1517 1517 1516 1516 1516 1516 1515 1514 1514 1514 1514 1515 1515 1514 1514 1513 1512 1512 1511 1510 1509 1508 1506 1505 1504 1503 1502
1456 1458 1460 1462 1464 1466 1467 1468 1470 1470 1471 1472 1472 1474 1477 1479 1479 1479 1480 1480 1480 1480 1482 1483 1484 1486 1488 1491 1493 1495 1497 1498 1499 1500 1502 1504 1505 1507 1508 1508 1509 1511 1512 1513 1514 1515 1515 1516 1516 1515 1514 1514 1514 1513 1512 1512 1512 1513 1513 1512 1512 1511 1511 1510 1509 1509 1508 1507 1506 1505 1504 1503 1502 1501
1451 1453 1455 1458 1460 1461 1462 1463 1464 1465 1465 1465 1465 1467 1472 1473 1472 1473 1474 1475 1475 1476 1478 1479 1481 1483 1486 1488 1491 1492 1494 1496 1497 1498 1500 1502 1503 1504 1505 1505 1507 1508 1509 1511 1512 1513 1513 1514 1514 1514 1513 1513 1513 1512 1511 1511 1511 1511 1511 1510 1510 1509 1509 1508 1507 1506 1505 1505 1504 1503 1502 1501 1501 1500
1447 1449 1451 1453 1455 1457 1458 1459 1460 1460 1460 1458 1457 1461 1466 1467 1466 1466 1469 1470 1471 1472 1474 1476 1478 1481 1483 1486 1488 1490 1492 1494 1495 1497 1498 1499 1500 1501 1502 1503 1504 1505 1506 1508 1509 1510 1511 1512 1513 1513 1513 1512 1512 1511 1511 1510 1510 1509 1509 1509 1508 1507 1507 1506 1505 1504 1503 1503 1502 1501 1500 1499 1499 1498